Location: Bettgenhausen
(50.6463°N, 7.5681°E)
Time: 00:48:43
(UTC+00:00)

STARLINK-26 - Pass Details

Date: 27 February 2020
Orbit: 434 x 436 km, 53.0° (Epoch: 04 April)

Event Time Altitude Azimuth Distance (km) Brightness Sun altitude
Rises 18:57:19 0° 290° (WNW) 2,425 8.5 -18.3°
Reaches altitude 10° 18:59:26 10° 288° (WNW) 1,555 7.2 -18.6°
Maximum altitude 19:02:55 74° 204° (SSW) 461 3.2 -19.1°
Enters shadow 19:03:21 63° 147° (SSE) 496 3.1 -19.2°
